Brenham, TX

9:00 PM CST on January 21, 2018 (GMT -0600)
Brenham

Weather History for K11R - July, 2013

Change the Weather History Date:

Monday, July 22, 2013

  Actual Average (KCLL) Record (KCLL)
Temperature  
Mean Temperature 90 °F -  
Max Temperature 98 °F 94 °F 103 °F (1996)
Min Temperature 81 °F 71 °F 64 °F (1915)
Cooling Degree Days 24    
Growing Degree Days 40 (Base 50)    
Moisture  
Dew Point 74 °F    
Average Humidity 65    
Maximum Humidity 88    
Minimum Humidity 41    
Precipitation  
Precipitation 0.00 in - - ()
Sea Level Pressure  
Sea Level Pressure 29.98 in    
Wind  
Wind Speed 9 mph (South)    
Max Wind Speed 18 mph    
Max Gust Speed 24 mph    
Visibility 10 miles    
Events      
Averages and records for this station are not official NWS values.
T = Trace of Precipitation, MM = Missing Value Source: NWS Daily Summary

Daily Weather History Graph

Daily Weather History Graph

Search for Another Location

Airport or City:

Trip Planner

Search our weather history database for the weather conditions in past years. The results will help you decide how hot, cold, wet, or windy it might be!

Date:

Astronomy

Jul. 22, 2013 Rise Set
Actual Time 6:38 AM CDT 8:25 PM CDT
Civil Twilight 6:11 AM CDT 8:51 PM CDT
Nautical Twilight 5:39 AM CDT 9:23 PM CDT
Astronomical Twilight 5:05 AM CDT 9:57 PM CDT
Moon 8:19 PM CDT 6:31 AM CDT
Length of Visible Light 14h 40m
Length of Day
13h 47m
Full, 100% of the Moon is Illuminated
Jul 22
Full
Jul 22
Full
Jul 29
Last Quarter
Aug 6
New
Aug 14
First Quarter

Hourly Weather History & Observations

Time (CDT) Temp. Heat Index Dew Point Humidity Pressure Visibility Wind Dir Wind Speed Gust Speed Precip Events Conditions
12:15 AM 81.9 °F 89.7 °F 77.0 °F 85% 29.99 in 10.0 mi SSE 6.9 mph - N/A   Scattered Clouds
12:35 AM 81.7 °F 89.7 °F 77.4 °F 87% 30.00 in 10.0 mi South 6.9 mph - N/A   Mostly Cloudy
12:55 AM 81.7 °F 89.7 °F 77.4 °F 87% 30.00 in 10.0 mi SSE 5.8 mph - N/A   Overcast
1:15 AM 81.9 °F 90.2 °F 77.5 °F 87% 29.99 in 10.0 mi South 6.9 mph - N/A   Mostly Cloudy
1:35 AM 82.4 °F 91.2 °F 77.5 °F 85% 29.99 in - South 9.2 mph - N/A   Overcast
1:55 AM 82.4 °F 91.5 °F 77.9 °F 86% 29.98 in - South 9.2 mph - N/A   Overcast
2:15 AM 82.4 °F 91.5 °F 77.9 °F 86% 29.98 in - South 8.1 mph - N/A   Overcast
2:35 AM 82.4 °F 91.5 °F 77.9 °F 86% 29.98 in - South 6.9 mph - N/A   Overcast
2:55 AM 82.0 °F 90.8 °F 77.9 °F 87% 29.97 in 10.0 mi South 10.4 mph - N/A   Overcast
3:15 AM 82.0 °F 90.8 °F 77.9 °F 87% 29.97 in 10.0 mi South 8.1 mph - N/A   Overcast
3:35 AM 82.4 °F 91.5 °F 77.9 °F 86% 29.97 in 10.0 mi South 6.9 mph - N/A   Overcast
3:55 AM 82.4 °F 91.5 °F 77.9 °F 86% 29.97 in - South 9.2 mph - N/A   Overcast
4:15 AM 82.4 °F 91.2 °F 77.5 °F 85% 29.97 in - South 11.5 mph - N/A   Overcast
4:35 AM 82.0 °F 90.5 °F 77.4 °F 86% 29.97 in 10.0 mi South 10.4 mph - N/A   Scattered Clouds
4:55 AM 82.0 °F 90.5 °F 77.5 °F 86% 29.97 in 10.0 mi South 10.4 mph - N/A   Mostly Cloudy
5:15 AM 82.0 °F 90.5 °F 77.5 °F 86% 29.97 in 10.0 mi South 6.9 mph - N/A   Mostly Cloudy
5:35 AM 82.0 °F 90.5 °F 77.5 °F 86% 29.98 in 10.0 mi South 6.9 mph - N/A   Mostly Cloudy
5:55 AM 82.4 °F 91.5 °F 77.9 °F 86% 29.98 in 10.0 mi South 6.9 mph - N/A   Overcast
6:15 AM 82.4 °F 91.2 °F 77.5 °F 85% 29.99 in 10.0 mi South 6.9 mph - N/A   Overcast
6:35 AM 82.2 °F 91.0 °F 77.7 °F 86% 29.99 in 10.0 mi South 4.6 mph - N/A   Mostly Cloudy
6:55 AM 81.9 °F 90.5 °F 77.9 °F 88% 30.00 in - South 4.6 mph - N/A   Overcast
7:15 AM 82.0 °F 90.8 °F 77.9 °F 87% 30.00 in 7.0 mi South 3.5 mph - N/A   Mostly Cloudy
7:35 AM 82.4 °F 91.5 °F 77.9 °F 86% 30.00 in 10.0 mi South 5.8 mph - N/A   Overcast
7:55 AM 82.8 °F 92.6 °F 78.3 °F 86% 30.00 in 10.0 mi SSW 6.9 mph - N/A   Overcast
8:35 AM 84.7 °F 95.6 °F 77.5 °F 79% 30.01 in 10.0 mi SSW 13.8 mph - N/A   Scattered Clouds
8:55 AM 84.7 °F 95.2 °F 77.2 °F 78% 30.01 in 10.0 mi SSW 9.2 mph - N/A   Scattered Clouds
9:55 AM 87.3 °F 97.2 °F 75.6 °F 68% 30.02 in 10.0 mi SSW 13.8 mph 18.4 mph N/A   Scattered Clouds
10:15 AM 89.1 °F 100.8 °F 76.3 °F 66% 30.02 in 10.0 mi SSW 10.4 mph 16.1 mph N/A   Scattered Clouds
10:35 AM 89.6 °F 99.8 °F 74.8 °F 62% 30.02 in 10.0 mi South 13.8 mph 19.6 mph N/A   Scattered Clouds
10:55 AM 88.7 °F 98.2 °F 74.5 °F 63% 30.03 in 10.0 mi SSW 10.4 mph 16.1 mph N/A   Clear
11:15 AM 90.5 °F 100.9 °F 74.7 °F 60% 30.03 in 10.0 mi SSW 9.2 mph - N/A   Scattered Clouds
11:35 AM 91.2 °F 100.2 °F 73.6 °F 56% 30.03 in 10.0 mi SSW 9.2 mph 16.1 mph N/A   Clear
11:55 AM 91.8 °F 100.3 °F 72.9 °F 54% 30.02 in 10.0 mi SW 11.5 mph - N/A   Scattered Clouds
12:15 PM 91.8 °F 99.7 °F 72.5 °F 53% 30.02 in 10.0 mi South 10.4 mph - N/A   Scattered Clouds
12:35 PM 92.5 °F 100.1 °F 71.8 °F 51% 30.01 in 10.0 mi SSW 10.4 mph 17.3 mph N/A   Mostly Cloudy
12:55 PM 93.9 °F 101.5 °F 71.6 °F 48% 30.01 in 10.0 mi South 13.8 mph - N/A   Mostly Cloudy
1:15 PM 91.9 °F 101.3 °F 73.8 °F 55% 30.00 in 10.0 mi WSW 3.5 mph - N/A   Mostly Cloudy
1:35 PM 94.6 °F 102.4 °F 71.6 °F 47% 29.99 in 10.0 mi SSW 10.4 mph - N/A   Mostly Cloudy
1:55 PM 95.7 °F 102.8 °F 70.9 °F 44% 29.99 in 10.0 mi South 15.0 mph 19.6 mph N/A   Scattered Clouds
2:15 PM 97.0 °F 103.5 °F 69.8 °F 41% 29.98 in 10.0 mi South 12.7 mph - N/A   Scattered Clouds
2:35 PM 96.1 °F 102.9 °F 70.2 °F 43% 29.97 in 10.0 mi South 11.5 mph 17.3 mph N/A   Scattered Clouds
2:55 PM 96.3 °F 102.0 °F 69.3 °F 41% 29.97 in 10.0 mi South 12.7 mph - N/A   Scattered Clouds
3:15 PM 98.1 °F 106.5 °F 71.1 °F 42% 29.95 in 10.0 mi South 12.7 mph - N/A   Scattered Clouds
3:35 PM 96.4 °F 103.7 °F 70.9 °F 43% 29.95 in 10.0 mi SSE 12.7 mph 18.4 mph N/A   Scattered Clouds
3:55 PM 97.0 °F 104.8 °F 70.9 °F 43% 29.95 in 10.0 mi SSW 10.4 mph - N/A   Scattered Clouds
4:15 PM 98.1 °F 105.7 °F 70.5 °F 41% 29.95 in 10.0 mi SSW 10.4 mph 19.6 mph N/A   Clear
4:35 PM 95.9 °F 103.2 °F 71.1 °F 44% 29.95 in 10.0 mi South 11.5 mph 17.3 mph N/A   Scattered Clouds
4:55 PM 97.3 °F 104.9 °F 71.1 °F 42% 29.94 in 10.0 mi South 16.1 mph - N/A   Clear
5:15 PM 97.2 °F 104.5 °F 70.9 °F 42% 29.94 in 10.0 mi South 18.4 mph 24.2 mph N/A   Clear
5:35 PM 96.8 °F 103.8 °F 70.5 °F 42% 29.93 in 10.0 mi South 17.3 mph 21.9 mph N/A   Clear
5:55 PM 96.6 °F 103.4 °F 70.3 °F 42% 29.93 in 7.0 mi South 12.7 mph 23.0 mph N/A   Clear
6:15 PM 95.9 °F 102.5 °F 70.2 °F 43% 29.93 in 10.0 mi SSE 12.7 mph 21.9 mph N/A   Clear
6:35 PM 95.2 °F 101.7 °F 70.2 °F 44% 29.93 in 10.0 mi South 13.8 mph 20.7 mph N/A   Clear
6:55 PM 94.3 °F 100.4 °F 70.2 °F 45% 29.93 in 10.0 mi SSE 12.7 mph - N/A   Clear
7:15 PM 93.6 °F 100.1 °F 70.3 °F 47% 29.93 in 10.0 mi SSE 12.7 mph 18.4 mph N/A   Clear
7:35 PM 92.7 °F 99.4 °F 70.7 °F 49% 29.93 in 10.0 mi South 11.5 mph - N/A   Clear
7:55 PM 91.4 °F 97.8 °F 70.7 °F 51% 29.94 in 10.0 mi South 11.5 mph 20.7 mph N/A   Clear
8:15 PM 90.3 °F 95.7 °F 70.2 °F 51% 29.95 in 10.0 mi South 11.5 mph 19.6 mph N/A   Clear
8:35 PM 89.1 °F 94.1 °F 70.2 °F 53% 29.95 in 10.0 mi South 11.5 mph - N/A   Clear
8:55 PM 88.3 °F 93.2 °F 70.0 °F 54% 29.96 in 10.0 mi South 12.7 mph - N/A   Clear
9:15 PM 87.6 °F 92.7 °F 70.0 °F 56% 29.97 in 10.0 mi South 11.5 mph - N/A   Clear
9:35 PM 86.9 °F 92.5 °F 71.2 °F 59% 29.98 in 10.0 mi South 10.4 mph 16.1 mph N/A   Clear
9:55 PM 86.4 °F 93.0 °F 72.5 °F 63% 29.99 in 10.0 mi South 8.1 mph - N/A   Clear
10:15 PM 85.8 °F 93.0 °F 73.4 °F 66% 29.99 in 10.0 mi South 9.2 mph - N/A   Clear
10:35 PM 85.1 °F 92.6 °F 73.9 °F 69% 30.00 in 10.0 mi South 9.2 mph 16.1 mph N/A   Clear
10:55 PM 84.7 °F 92.5 °F 74.5 °F 71% 30.00 in 10.0 mi South 9.2 mph - N/A   Clear
11:15 PM 84.2 °F 92.3 °F 75.0 °F 74% 30.00 in 10.0 mi South 8.1 mph - N/A   Clear
11:35 PM 83.5 °F 91.2 °F 75.4 °F 76% 30.00 in 10.0 mi SSE 8.1 mph - N/A   Clear
11:55 PM 83.3 °F 91.8 °F 76.1 °F 79% 30.00 in 7.0 mi South 6.9 mph - N/A   Clear